This is the latest recevied weather packets stored in our database for station/object DL7KAW-10. If no packets are shown the sender has not sent any weather packets the latest 10 day(s).
| Time | Temp. | Humidity | Pressure | Rain* | Wind** | Luminosity | Snow |
|---|---|---|---|---|---|---|---|
| 1777677050 | 16.11° C | 56% | 1026 hPa | - | - | - | - |
| 1777676150 | 16.11° C | 56% | 1025.9 hPa | - | - | - | - |
| 1777675250 | 16.11° C | 56% | 1026.1 hPa | - | - | - | - |
| 1777674365 | 16.11° C | 55% | 1026.1 hPa | - | - | - | - |
| 1777673449 | 16.11° C | 55% | 1026.1 hPa | - | - | - | - |
| 1777672549 | 16.11° C | 54% | 1026.2 hPa | - | - | - | - |
| 1777671649 | 16.11° C | 54% | 1026.3 hPa | - | - | - | - |
| 1777670749 | 16.67° C | 54% | 1026.2 hPa | - | - | - | - |
| 1777669849 | 16.67° C | 54% | 1026.3 hPa | - | - | - | - |
| 1777668949 | 16.67° C | 54% | 1026.3 hPa | - | - | - | - |
| 1777668049 | 14.44° C | 59% | 1026.5 hPa | - | - | - | - |
| 1777667149 | 16.67° C | 52% | 1026.4 hPa | - | - | - | - |
| 1777666248 | 16.67° C | 52% | 1026.5 hPa | - | - | - | - |
| 1777665348 | 16.67° C | 51% | 1026.6 hPa | - | - | - | - |
| 1777664448 | 16.67° C | 52% | 1026.7 hPa | - | - | - | - |
| 1777663548 | 16.67° C | 51% | 1026.8 hPa | - | - | - | - |
| 1777662648 | 17.22° C | 52% | 1026.7 hPa | - | - | - | - |
| 1777661748 | 16.67° C | 52% | 1026.7 hPa | - | - | - | - |
| 1777660848 | 16.67° C | 51% | 1026.6 hPa | - | - | - | - |
| 1777659948 | 16.67° C | 51% | 1026.7 hPa | - | - | - | - |
| 1777659047 | 17.22° C | 50% | 1026.6 hPa | - | - | - | - |
| 1777658147 | 17.22° C | 49% | 1026.4 hPa | - | - | - | - |
| 1777657247 | 17.22° C | 48% | 1026.4 hPa | - | - | - | - |
| 1777656347 | 17.78° C | 47% | 1026.4 hPa | - | - | - | - |
| 1777655447 | 17.22° C | 47% | 1026.4 hPa | - | - | - | - |
* Rain since midnight (hover to see other rain measurements)
** Current wind speed in m/s (hover to see current wind gust speed)